This is the latest recevied weather packets stored in our database for station/object M0JUI-1. If no packets are shown the sender has not sent any weather packets the latest 10 day(s).
| Time | Temp. | Humidity | Pressure | Rain* | Wind** | Luminosity | Snow |
|---|---|---|---|---|---|---|---|
| 1778169351 | 14.44° C | 77% | 1014.5 hPa | 0 mm | - | 120 W/m² | - |
| 1778169051 | 14.44° C | 77% | 1014.7 hPa | 0 mm | - | 135 W/m² | - |
| 1778168739 | 14.44° C | 76% | 1014.7 hPa | 0 mm | - | 172 W/m² | - |
| 1778168439 | 15° C | 76% | 1014.6 hPa | 0 mm | - | 213 W/m² | - |
| 1778168139 | 14.44° C | 77% | 1014.7 hPa | 0 mm | - | 238 W/m² | - |
| 1778167844 | 14.44° C | 76% | 1014.8 hPa | 0 mm | - | 174 W/m² | - |
| 1778167539 | 15° C | 76% | 1014.9 hPa | 0 mm | - | 146 W/m² | - |
| 1778167239 | 15° C | 77% | 1014.7 hPa | 0 mm | - | 153 W/m² | - |
| 1778166939 | 14.44° C | 77% | 1014.8 hPa | 0 mm | - | 171 W/m² | - |
| 1778166639 | 14.44° C | 77% | 1015.1 hPa | 0 mm | - | 181 W/m² | - |
| 1778166339 | 14.44° C | 78% | 1015 hPa | 0 mm | - | 171 W/m² | - |
| 1778166040 | 14.44° C | 78% | 1014.9 hPa | 0 mm | - | 198 W/m² | - |
| 1778165739 | 14.44° C | 78% | 1014.9 hPa | 0 mm | - | 226 W/m² | - |
| 1778165440 | 15° C | 77% | 1015 hPa | 0 mm | - | 260 W/m² | - |
| 1778165140 | 14.44° C | 76% | 1014.8 hPa | 0 mm | - | 241 W/m² | - |
| 1778164840 | 15° C | 76% | 1015 hPa | 0 mm | - | 211 W/m² | - |
| 1778164539 | 15.56° C | 75% | 1015.2 hPa | 0 mm | - | 235 W/m² | - |
| 1778164227 | 15.56° C | 76% | 1015.1 hPa | 0 mm | - | 263 W/m² | - |
| 1778163927 | 15° C | 77% | 1015.1 hPa | 0 mm | - | 309 W/m² | - |
| 1778163628 | 15° C | 76% | 1015.2 hPa | 0 mm | - | 306 W/m² | - |
| 1778163327 | 15.56° C | 75% | 1015.2 hPa | 0 mm | - | 299 W/m² | - |
| 1778163028 | 15.56° C | 75% | 1015.4 hPa | 0 mm | - | 311 W/m² | - |
| 1778162727 | 15.56° C | 77% | 1015.3 hPa | 0 mm | - | 324 W/m² | - |
| 1778162430 | 15.56° C | 75% | 1015.3 hPa | 0 mm | - | 391 W/m² | - |
| 1778162127 | 15.56° C | 75% | 1015.4 hPa | 0 mm | - | 391 W/m² | - |
* Rain latest hour (hover to see other rain measurements)
** Current wind speed in m/s (hover to see current wind gust speed)